Home > Time Zones > World Clock > Weather > U.S.A. > Adak > Past weeks

Flag for U.S.A. Weather past 2 weeks in Adak, Alaska, U.S.A.

Now
48 °F

Overcast.


Feels Like: 44 °F
Forecast: 48 / 52 °F
Wind: 10 mph from East

Location: Adak

Current Time: Jul 31, 2015 at 9:09:30 AM

Latest Report: Jul 31, 2015 at 8:36 AM


Visibility: 10 mi

Pressure: 30.03 "Hg

Humidity: 82%

Dew point: 43 °F

Location of AdakLocation

Historic Weather in Adak — Graph

°F

Adak temperature yesterday

Maximum temperature yesterday: 55 °F (at 2:36 PM)
Minimum temperature yesterday: 48 °F (at 12:16 AM)
Average temperature yesterday: 51 °F

Past Weeks' High & Low Weather Summary

 TemperatureHumidityPressure
High63 °F (Jul 27, 3:56 PM)87% (Jul 22, 10:16 PM)30.35 "Hg (Jul 22, 10:16 PM)
Low43 °F (Jul 26, 3:16 AM)52% (Jul 27, 3:16 PM)29.61 "Hg (Jul 20, 4:36 AM)
Average49 °F76%30.02 "Hg
* Reported Jul 16 7:16 AM — Jul 31 7:56 AM, Adak, Weather by CustomWeather, © 2015

Note: Actual official high and low records may vary slightly from our data, if they occured in-between our weather recording intervals... More about our weather records

Advertising

Adak weather history for previous 24 hours

 ConditionsComfort  
Time TempWeatherWind HumidityBarometerVisibility
7:56 AM
Fri, Jul 31
48 °FOvercast.12 mph82%30.02 "Hg7 mi
7:36 AM48 °FOvercast.12 mph82%30.02 "Hg4 mi
7:16 AM48 °FOvercast.14 mph82%30.02 "Hg5 mi
6:56 AM48 °FOvercast.12 mph82%30.02 "Hg9 mi
6:36 AM48 °FMostly cloudy.13 mph82%30.01 "Hg9 mi
6:16 AM48 °FOvercast.14 mph87%30.01 "Hg10 mi
5:56 AM48 °FOvercast.10 mph82%30.01 "Hg7 mi
5:36 AM48 °FMostly cloudy.10 mph82%30.01 "Hg2 mi
5:16 AM48 °FMostly cloudy.9 mph82%30.01 "Hg3 mi
4:56 AM48 °FLow clouds.9 mph82%30.01 "Hg2 mi
4:36 AM48 °FLow clouds.10 mph82%30.01 "Hg2 mi
4:16 AM48 °FMostly cloudy.10 mph82%30.01 "Hg4 mi
3:56 AM48 °FOvercast.9 mph82%30.01 "Hg9 mi
3:36 AM48 °FOvercast.9 mph82%30.01 "Hg10 mi
3:16 AM48 °FOvercast.10 mph82%30.00 "Hg10 mi
2:56 AM48 °FOvercast.9 mph82%30.01 "Hg10 mi
2:36 AM48 °FOvercast.9 mph82%30.01 "Hg10 mi
2:16 AM50 °FOvercast.9 mph76%30.00 "Hg10 mi
1:56 AM48 °FOvercast.10 mph82%30.00 "Hg10 mi
1:36 AM48 °FOvercast.10 mph82%30.00 "Hg10 mi
1:16 AM50 °FMostly cloudy.9 mph76%30.00 "Hg10 mi
12:56 AM50 °FMostly cloudy.9 mph76%30.00 "Hg10 mi
12:36 AM50 °FMostly cloudy.12 mph76%30.00 "Hg10 mi
12:16 AM50 °FOvercast.10 mph76%29.99 "Hg10 mi
11:56 PM
Thu, Jul 30
50 °FOvercast.10 mph76%29.99 "Hg10 mi
11:36 PM48 °FOvercast.9 mph82%29.99 "Hg10 mi
11:16 PM50 °FOvercast.7 mph76%29.99 "Hg10 mi
10:36 PM50 °FOvercast.13 mph76%29.99 "Hg10 mi
10:16 PM50 °FOvercast.10 mph76%29.98 "Hg10 mi
9:56 PM52 °FOvercast.13 mph72%29.97 "Hg10 mi
9:36 PM52 °FMostly cloudy.10 mph72%29.97 "Hg10 mi
9:16 PM52 °FMostly cloudy.8 mph72%29.96 "Hg10 mi
8:56 PM52 °FOvercast.8 mph72%29.96 "Hg10 mi
8:36 PM52 °FOvercast.6 mph72%29.96 "Hg10 mi
8:16 PM52 °FOvercast.6 mph72%29.96 "Hg10 mi
7:56 PM52 °FOvercast.12 mph72%29.96 "Hg10 mi
7:36 PM52 °FOvercast.9 mph72%29.96 "Hg10 mi
6:56 PM52 °FOvercast.8 mph72%29.97 "Hg10 mi
6:16 PM52 °FOvercast.7 mph72%29.96 "Hg10 mi
5:56 PM52 °FOvercast.7 mph72%29.97 "Hg10 mi
5:36 PM52 °FMostly cloudy.9 mph72%29.97 "Hg10 mi
5:16 PM54 °FMostly cloudy.8 mph67%29.96 "Hg10 mi
4:56 PM54 °FMostly cloudy.10 mph72%29.96 "Hg10 mi
4:36 PM54 °FMostly cloudy.7 mph67%29.96 "Hg10 mi
4:16 PM54 °FMostly cloudy.9 mph72%29.96 "Hg10 mi
3:56 PM54 °FOvercast.8 mph72%29.96 "Hg10 mi
3:36 PM54 °FOvercast.9 mph72%29.96 "Hg10 mi
3:16 PM54 °FOvercast.10 mph67%29.96 "Hg10 mi
2:56 PM54 °FOvercast.8 mph67%29.96 "Hg10 mi
2:36 PM55 °FOvercast.13 mph67%29.97 "Hg10 mi
2:16 PM54 °FOvercast.10 mph67%29.96 "Hg10 mi
1:56 PM54 °FOvercast.12 mph72%29.96 "Hg10 mi
1:36 PM54 °FOvercast.9 mph72%29.96 "Hg10 mi
1:16 PM54 °FOvercast.7 mph67%29.97 "Hg10 mi
12:36 PM54 °FOvercast.9 mph67%29.96 "Hg10 mi
12:16 PM54 °FOvercast.8 mph72%29.96 "Hg10 mi
11:56 AM52 °FOvercast.6 mph72%29.96 "Hg10 mi
11:36 AM52 °FOvercast.7 mph72%29.96 "Hg10 mi
11:16 AM52 °FOvercast.7 mph72%29.96 "Hg10 mi
10:56 AM52 °FPartly sunny.12 mph72%29.96 "Hg10 mi
10:36 AM52 °FOvercast.10 mph72%29.96 "Hg10 mi
10:16 AM52 °FOvercast.14 mph72%29.96 "Hg10 mi
9:56 AM52 °FOvercast.7 mph72%29.96 "Hg10 mi
9:36 AM52 °FOvercast.3 mph72%29.95 "Hg10 mi
9:16 AM52 °FOvercast.7 mph72%29.95 "Hg10 mi
Weather by CustomWeather, © 2015

See weather overviewHow to use our weather pages